Regional Weather Roundup
Issued by NWS

Home | Current Version | Previous Version | Text Only | Print | Product List | Glossary Off
Versions: 1 2 3 4 5 6 7 8 9 10 11 12 13 14 15 16 17 18 19 20 21 22 23 24 25 26 27 28 29 30 31 32 33 34 35 36 37 38 39 40 41 42 43 44 45 46 47 48 49 50

674
ASUS45 KPSR 262010
RWRAZ

ARIZONA HOURLY REGIONAL WEATHER ROUNDUP
NATIONAL WEATHER SERVICE PHOENIX AZ
100 PM MST MON JUN 26 2017

NOTE: FAIR INDICATES FEW OR NO CLOUDS BELOW 12,000 FEET WITH NO
SIGNIFICANT WEATHER AND/OR OBSTRUCTIONS TO VISIBILITY.

AZZ001>003-036-262100-
NORTHWEST ARIZONA

CITY           SKY/WX    TMP DP  RH WIND       PRES   REMARKS
BULLHEAD CITY  SUNNY    111  23   4 SW6G18    29.80F HX 102
KINGMAN        SUNNY    101  28   7 SW18G29   30.05F
$$

AZZ004>008-015-016-018-262100-
NORTH CENTRAL ARIZONA

CITY           SKY/WX    TMP DP  RH WIND       PRES   REMARKS
GRAND CANYON   SUNNY     91  21   8 W15G31    30.29F
PRESCOTT       SUNNY     95  28   9 SW13      30.18F
FLAGSTAFF      MOSUNNY   86  30  13 SW14G22   30.32F
PAYSON         SUNNY     91  43  18 VRB7G15   30.22F
PAGE           MOSUNNY  100  30   8 NW5       30.04F
$$

AZZ009>014-017-262100-
NORTHEAST ARIZONA

CITY           SKY/WX    TMP DP  RH WIND       PRES   REMARKS
WINSLOW        MOSUNNY   96  34  11 N5        30.13F
SAINT JOHNS    MOSUNNY   91  35  13 VRB7      30.19F
WINDOW ROCK    MOSUNNY   85  32  15 NE14G23   30.27F
SHOW LOW       MOSUNNY   84  34  16 W3        30.28F
$$

AZZ540-542>544-546-548-262100-
GREATER PHOENIX AREA

CITY           SKY/WX    TMP DP  RH WIND       PRES   REMARKS
PHOENIX        MOSUNNY  104  55  19 CALM      29.86F HX 102
BUCKEYE          N/A    104  54  18 SW8       29.87F HX 102
LUKE AFB       MOSUNNY  104  55  20 S3        29.86F HX 102
DEER VALLEY    SUNNY    101  56  22 W5        29.89F HX 100
SCOTTSDALE     SUNNY    103  55  20 SW8       29.91F HX 101
MESA-FALCON    SUNNY    104  57  21 SW9       29.91F HX 103
MESA-GATEWAY   SUNNY    102  55  21 W5        29.90F HX 101
CHANDLER       SUNNY    102  54  19 CALM      29.89F HX 100
$$

AZZ539-553-262100-
SOUTHWEST MARICOPA COUNTY AND PINAL COUNTY

CITY           SKY/WX    TMP DP  RH WIND       PRES   REMARKS
CASA GRANDE    SUNNY    104  57  21 S6        29.91F HX 103
GILA BEND      SUNNY    106  52  17 SW9       29.84F HX 103
$$

AZZ503-504-507>509-262100-
SOUTHEAST ARIZONA

CITY           SKY/WX    TMP DP  RH WIND       PRES   REMARKS
TUCSON         SUNNY    103  52  18 N7        30.00F HX 100
DAVIS-MONTHAN  MOSUNNY  101  51  18 N7        29.98F
RYAN FIELD     SUNNY    102  52  18 W12G17    29.99F HX 100
NOGALES        SUNNY    101  48  16 NW8       30.07F
SIERRA VISTA   MOSUNNY   94  43  17 N3G17     30.16F
DOUGLAS        SUNNY     93  49  22 VRB6      30.12F
SAFFORD        SUNNY     95  53  24 SW9       30.02F
$$

AZZ532-262100-
SOUTHWEST ARIZONA

CITY           SKY/WX    TMP DP  RH WIND       PRES   REMARKS
YUMA           MOSUNNY  107  55  18 S8        29.83F HX 106
$$

CAZ041-043-047-048-061-525>527-560>570-262100-
SOUTHERN CALIFORNIA

CITY           SKY/WX    TMP DP  RH WIND       PRES   REMARKS
DOWNTOWN L.A.  SUNNY     91  60  35 VRB6      29.91R
L.A. AIRPORT   SUNNY     81  61  50 W15       29.93S
SAN DIEGO      MOSUNNY   71  64  78 S6        29.96F
BURBANK        SUNNY     99  55  23 S15       29.91F
ONTARIO        SUNNY    103  39  11 W14G26    29.92F
RIVERSIDE      SUNNY    105  34   8 W18       29.91F
PALM SPRINGS   SUNNY    106  52  16 E10       29.86F HX 103
EL CENTRO NAS  MOSUNNY  108  50  14 SE5       29.82F HX 105
IMPERIAL       SUNNY    109  58  18 NE5       29.80F HX 109
BLYTHE         SUNNY    109  39   9 S8        29.83F HX 103
$$

NVZ020-UTZ003-262100-
SOUTHERN NEVADA-UTAH

CITY           SKY/WX    TMP DP  RH WIND       PRES   REMARKS
LAS VEGAS      SUNNY    105   3   2 S15G29    29.86F
SALT LAKE CITY PTSUNNY   95  36  12 SW8       30.01F
$$

NMZ009-TXZ055-262100-
NEW MEXICO-WEST TEXAS

CITY           SKY/WX    TMP DP  RH WIND       PRES   REMARKS
ALBUQUERQUE    MOSUNNY   83  46  27 SW14G21   30.22F
EL PASO        MOSUNNY   88  60  38 NE8       30.15F
$$


........................KEY........................
SKY/WX - SKY CONDITION/WEATHER
TMP    - TEMPERATURE IN FAHRENHEIT
DP     - DEW POINT IN FAHRENHEIT
RH     - RELATIVE HUMIDITY IN PERCENT
WIND   - DIRECTION AND SPEED IN MILES PER HOUR (MPH)
VRB    - VARIABLE WIND DIRECTION
PRES   - MEAN SEA LEVEL PRESSURE IN INCHES OF MERCURY
         F - FALLING PRESSURE   R - RISING PRESSURE
         S - STEADY PRESSURE
VSB    - VISIBILITY IN MILES
HX     - HEAT INDEX IN FAHRENHEIT
WCI    - WIND CHILL INDEX IN FAHRENHEIT
TC     - TEMPERATURE IN CELSIUS WHICH IS ALSO KNOWN AS
         TEMPERATURE IN CENTIGRADE
AFB    - AIR FORCE BASE
         LUKE AFB IS LUKE AIR FORCE BASE
         DAVIS-MONTHAN IS DAVIS-MONTHAN AIR FORCE BASE
NAS    - NAVAL AIR STATION
         EL CENTRO NAS IS EL CENTRO NAVAL AIR STATION
N/A    - NOT AVAILABLE





USA.gov is the U.S. government's official web portal to all federal, state and local government web resources and services.